KL-ALPHA A (44785 NORAD) Tracking and Keplerian Element Data

This shows tracking and keplerian element data for the satellite.

Feedback or suggestion? Click here.




ElementValue
Catalog44785
NameKL-ALPHA A
Epoch Orbit895
Epoch Day22.4430359
Epoch Year2020
RAAN120.832
Inclination88.9182
Eccentricity0.0012992
Argument of Perigee82.8894
Mean Anonmoly277.3732
Mean Motion13.5576145
Decay Rate6.8E-07
L11 44785U 19077A 20022.44303590 .00000068 00000-0 80238-4 0 9995
L22 44785 88.9182 120.8320 0012992 82.8894 277.3732 13.55761450 8954

Live tracking and technical data element details for KL-ALPHA A (NORAD 44785). KL-ALPHA A can be tracked NOW for your location showing map with azimuth and elevation plus other details from your city location.

Track the satellite on the map from your city or location and see movement details for azimuth, elevation, latitude, longitude, range, height, and movement on the map or in text.







IsCatalogInMostPopularTable: catalog: 44785, numindb: 9
Update: records affected: 1



GetName: 44785 KL-ALPHA A

Hit Count: updated at: Fri, 24 Jan 2020 14:16:57 GMT